Brainerd, MN

4:57 AM CDT on September 24, 2017 (GMT -0500)
Brainerd-Crow Wing County Regional

Weather History for KBRD - October, 2011

Change the Weather History Date:

Thursday, October 13, 2011

  Actual Average Record
Temperature  
Mean Temperature 54 °F -  
Max Temperature 61 °F 56 °F 80 °F (1956)
Min Temperature 48 °F 34 °F 22 °F (1979)
Degree Days  
Heating Degree Days 10    
Growing Degree Days 4 (Base 50)    
Moisture  
Dew Point 44 °F    
Average Humidity 69    
Maximum Humidity 88    
Minimum Humidity 41    
Precipitation  
Precipitation 0.00 in - - ()
Sea Level Pressure  
Sea Level Pressure 29.65 in    
Wind  
Wind Speed 8 mph (WNW)    
Max Wind Speed 21 mph    
Max Gust Speed 28 mph    
Visibility 9 miles    
Events      
Averages and records for this station are not official NWS values.
T = Trace of Precipitation, MM = Missing Value Source: NWS Daily Summary

Daily Weather History Graph

Daily Weather History Graph

Search for Another Location

Airport or City:

Trip Planner

Search our weather history database for the weather conditions in past years. The results will help you decide how hot, cold, wet, or windy it might be!

Date:

Astronomy

Oct. 13, 2011 Rise Set
Actual Time 7:30 AM CDT 6:34 PM CDT
Civil Twilight 7:00 AM CDT 7:04 PM CDT
Nautical Twilight 6:25 AM CDT 7:39 PM CDT
Astronomical Twilight 5:50 AM CDT 8:13 PM CDT
Moon 6:59 PM CDT (10/13) 9:12 AM CDT (10/13)
Length of Visible Light 12h 03m
Length of Day
11h 03m
Full, 98% of the Moon is Illuminated
Oct 13
Full
Oct 19
Last Quarter
Oct 26
New
Nov 2
First Quarter
Nov 10
Full

Hourly Weather History & Observations

Time (CDT) Temp. Dew Point Humidity Pressure Visibility Wind Dir Wind Speed Gust Speed Precip Events Conditions
12:53 AM 55.0 °F 51.1 °F 86% 29.65 in 4.0 mi South 3.5 mph - N/A   Mostly Cloudy
1:23 AM 53.6 °F 50.0 °F 88% 29.64 in 2.0 mi WSW 4.6 mph - N/A   Mostly Cloudy
1:36 AM 55.4 °F 51.8 °F 88% 29.64 in 6.0 mi West 5.8 mph - N/A   Scattered Clouds
1:53 AM 55.0 °F 50.0 °F 83% 29.64 in 10.0 mi West 3.5 mph - N/A   Clear
2:53 AM 55.0 °F 48.9 °F 80% 29.65 in 10.0 mi WNW 3.5 mph - N/A   Clear
3:53 AM 53.1 °F 46.9 °F 80% 29.64 in 10.0 mi NW 4.6 mph - N/A   Clear
4:53 AM 53.1 °F 46.9 °F 80% 29.65 in 10.0 mi WNW 9.2 mph - N/A   Clear
5:29 AM 53.6 °F 46.4 °F 77% 29.66 in 10.0 mi NW 10.4 mph - N/A   Mostly Cloudy
5:53 AM 53.1 °F 48.0 °F 83% 29.66 in 10.0 mi WNW 6.9 mph - N/A   Overcast
6:22 AM 53.6 °F 46.4 °F 77% 29.65 in 10.0 mi NW 11.5 mph 18.4 mph N/A   Overcast
7:53 AM 54.0 °F 46.9 °F 77% 29.65 in 10.0 mi WNW 9.2 mph - N/A   Overcast
8:11 AM 53.6 °F 46.4 °F 77% 29.64 in 10.0 mi West 8.1 mph - N/A   Overcast
8:43 AM 53.6 °F 46.4 °F 77% 29.64 in 10.0 mi West 12.7 mph 18.4 mph N/A   Overcast
8:53 AM 54.0 °F 46.9 °F 77% 29.65 in 10.0 mi West 9.2 mph - N/A   Overcast
9:04 AM 53.6 °F 46.4 °F 77% 29.65 in 10.0 mi West 11.5 mph 19.6 mph N/A   Overcast
9:19 AM 53.6 °F 44.6 °F 72% 29.65 in 10.0 mi WNW 13.8 mph - N/A   Overcast
9:53 AM 54.0 °F 45.0 °F 72% 29.65 in 10.0 mi WNW 11.5 mph 20.7 mph N/A   Overcast
10:53 AM 53.1 °F 44.1 °F 71% 29.65 in 10.0 mi WNW 12.7 mph 19.6 mph N/A   Overcast
11:53 AM 53.1 °F 43.0 °F 69% 29.65 in 10.0 mi NW 11.5 mph - N/A   Overcast
12:53 PM 54.0 °F 43.0 °F 66% 29.64 in 10.0 mi WNW 15.0 mph 20.7 mph N/A   Overcast
1:53 PM 54.0 °F 43.0 °F 66% 29.64 in 10.0 mi NW 10.4 mph - N/A   Overcast
2:43 PM 57.2 °F 41.0 °F 55% 29.62 in 10.0 mi NNW 16.1 mph 26.5 mph N/A   Scattered Clouds
2:53 PM 59.0 °F 39.9 °F 49% 29.63 in 10.0 mi NW 20.7 mph 24.2 mph N/A   Scattered Clouds
3:53 PM 59.0 °F 35.1 °F 41% 29.63 in 10.0 mi NW 13.8 mph 24.2 mph N/A   Mostly Cloudy
4:53 PM 57.9 °F 34.0 °F 41% 29.64 in 10.0 mi NNW 18.4 mph 27.6 mph N/A   Partly Cloudy
5:53 PM 55.9 °F 34.0 °F 44% 29.64 in 10.0 mi NW 12.7 mph 23.0 mph N/A   Clear
7:53 PM 53.1 °F 35.1 °F 50% 29.66 in 10.0 mi NW 10.4 mph - N/A   Clear
8:53 PM 50.0 °F 36.0 °F 59% 29.66 in 10.0 mi NW 5.8 mph - N/A   Clear
9:53 PM 50.0 °F 37.0 °F 61% 29.66 in 10.0 mi WNW 6.9 mph - N/A   Clear
10:53 PM 50.0 °F 37.9 °F 63% 29.66 in 10.0 mi WNW 9.2 mph - N/A   Mostly Cloudy
11:53 PM 48.9 °F 37.9 °F 66% 29.66 in 10.0 mi NW 9.2 mph - N/A   Mostly Cloudy